Location: DaVinci Observatory
(43.1080°N, 78.6453°W)
Time: 08:53:43
(UTC-04:00)

Tiangong 2 - Pass Details

Date: 07 October 2017
Orbit: 388 x 392 km, 42.8° (Epoch: 17 October)

Event Time Altitude Azimuth Distance (km) Brightness Sun altitude
Exits shadow 06:45:16 - 225° (SW) 2,167 4.5 -7.0°
Reaches altitude 10° 06:47:17 10° 213° (SSW) 1,417 3.6 -6.6°
Maximum altitude 06:50:00 26° 154° (SSE) 810 3.0 -6.1°
Drops below altitude 10° 06:52:45 10° 95° (E) 1,424 5.8 -5.6°
Sets 06:55:02 0° 82° (E) 2,283 7.2 -5.2°
